Information on these data can be found in provided Readme document
Contact Info: Zachary Fasnacht (zachary.fasnacht@ssaihq.com); Nickolay Krotkov (nickolay.a.krotkov@nasa.gov); Lok Lamsal (lok.lamsal@nasa.gov)

FillValue: -999.
ScaleFactor: 1e15
Units: molecules/cm^2

Date(yyyy-mm-dd),City,Country,LonCenter,LatCenter,BoundingCoordinates,Median,Q1,Q3,Mean,Baseline_Median,Baseline_Q1,Baseline_Q3,Baseline_Mean,NumGoodSamples,NumTotalSamples
2015-01-01,Ottawa,Canada,-75.6972,45.4215,[-76.1972 44.9215 -75.1972 45.9215],2.579,1.93,2.986,2.454,1.981,1.38,2.869,2.159,59.0,604.0
2015-01-02,Ottawa,Canada,-75.6972,45.4215,[-76.1972 44.9215 -75.1972 45.9215],2.579,1.93,2.986,2.454,1.848,1.355,2.631,2.046,59.0,602.0
2015-01-03,Ottawa,Canada,-75.6972,45.4215,[-76.1972 44.9215 -75.1972 45.9215],2.579,1.93,2.986,2.413,1.901,1.389,2.331,1.969,62.0,604.0
2015-01-04,Ottawa,Canada,-75.6972,45.4215,[-76.1972 44.9215 -75.1972 45.9215],2.579,1.93,2.986,2.413,1.905,1.385,2.525,2.016,62.0,606.0
2015-01-05,Ottawa,Canada,-75.6972,45.4215,[-76.1972 44.9215 -75.1972 45.9215],2.567,1.93,2.986,2.371,1.764,1.21,2.361,1.84,48.0,609.0
2015-01-06,Ottawa,Canada,-75.6972,45.4215,[-76.1972 44.9215 -75.1972 45.9215],2.628,1.492,3.303,2.387,1.739,1.023,2.377,1.775,43.0,601.0
2015-01-07,Ottawa,Canada,-75.6972,45.4215,[-76.1972 44.9215 -75.1972 45.9215],2.628,1.17,2.687,2.12,1.571,1.014,2.157,1.66,13.0,608.0
2015-01-08,Ottawa,Canada,-75.6972,45.4215,[-76.1972 44.9215 -75.1972 45.9215],2.628,1.17,2.687,2.12,1.487,0.933,2.176,1.651,13.0,609.0
2015-01-09,Ottawa,Canada,-75.6972,45.4215,[-76.1972 44.9215 -75.1972 45.9215],2.628,1.17,2.687,2.12,1.626,0.967,2.398,1.749,13.0,565.0
2015-01-10,Ottawa,Canada,-75.6972,45.4215,[-76.1972 44.9215 -75.1972 45.9215],2.628,1.17,2.687,2.12,1.641,0.926,2.383,1.728,13.0,568.0
2015-01-11,Ottawa,Canada,-75.6972,45.4215,[-76.1972 44.9215 -75.1972 45.9215],2.628,1.17,2.687,2.12,1.644,0.927,2.401,1.735,13.0,574.0
2015-01-12,Ottawa,Canada,-75.6972,45.4215,[-76.1972 44.9215 -75.1972 45.9215],2.628,1.17,2.687,2.12,1.689,0.963,2.471,1.781,13.0,575.0
2015-01-13,Ottawa,Canada,-75.6972,45.4215,[-76.1972 44.9215 -75.1972 45.9215],1.393,1.17,2.687,2.005,1.688,1.024,2.46,1.819,17.0,564.0
2015-01-14,Ottawa,Canada,-75.6972,45.4215,[-76.1972 44.9215 -75.1972 45.9215],1.676,1.22,2.687,1.94,1.628,0.986,2.353,1.731,24.0,574.0
2015-01-15,Ottawa,Canada,-75.6972,45.4215,[-76.1972 44.9215 -75.1972 45.9215],1.692,1.282,2.687,2.031,1.658,1.038,2.366,1.762,44.0,578.0
2015-01-16,Ottawa,Canada,-75.6972,45.4215,[-76.1972 44.9215 -75.1972 45.9215],1.692,1.282,2.687,2.031,1.5,1.016,2.442,1.718,44.0,575.0
2015-01-17,Ottawa,Canada,-75.6972,45.4215,[-76.1972 44.9215 -75.1972 45.9215],1.692,1.282,2.687,2.031,1.459,0.992,2.458,1.711,44.0,573.0
2015-01-18,Ottawa,Canada,-75.6972,45.4215,[-76.1972 44.9215 -75.1972 45.9215],1.717,1.423,2.687,2.087,1.466,0.963,2.352,1.673,41.0,571.0
2015-01-19,Ottawa,Canada,-75.6972,45.4215,[-76.1972 44.9215 -75.1972 45.9215],1.676,1.125,2.521,1.8,1.541,0.896,2.398,1.66,58.0,571.0
2015-01-20,Ottawa,Canada,-75.6972,45.4215,[-76.1972 44.9215 -75.1972 45.9215],1.676,1.125,2.521,1.8,1.669,1.055,2.497,1.777,58.0,574.0
2015-01-21,Ottawa,Canada,-75.6972,45.4215,[-76.1972 44.9215 -75.1972 45.9215],1.336,0.972,2.167,1.525,1.528,0.992,2.279,1.634,63.0,577.0
2015-01-22,Ottawa,Canada,-75.6972,45.4215,[-76.1972 44.9215 -75.1972 45.9215],1.3,0.97,1.764,1.358,1.567,1.081,2.165,1.611,59.0,566.0
2015-01-23,Ottawa,Canada,-75.6972,45.4215,[-76.1972 44.9215 -75.1972 45.9215],1.3,0.775,1.717,1.332,1.623,1.027,2.337,1.712,60.0,574.0
2015-01-24,Ottawa,Canada,-75.6972,45.4215,[-76.1972 44.9215 -75.1972 45.9215],1.3,0.826,1.624,1.294,1.518,0.999,2.098,1.604,83.0,613.0
2015-01-25,Ottawa,Canada,-75.6972,45.4215,[-76.1972 44.9215 -75.1972 45.9215],1.3,0.826,1.624,1.294,1.54,1.069,2.164,1.641,83.0,606.0
2015-01-26,Ottawa,Canada,-75.6972,45.4215,[-76.1972 44.9215 -75.1972 45.9215],1.3,0.775,1.624,1.288,1.451,0.957,2.099,1.558,85.0,609.0
2015-01-27,Ottawa,Canada,-75.6972,45.4215,[-76.1972 44.9215 -75.1972 45.9215],1.3,0.775,1.624,1.288,1.412,0.921,2.042,1.521,85.0,612.0
2015-01-28,Ottawa,Canada,-75.6972,45.4215,[-76.1972 44.9215 -75.1972 45.9215],1.336,0.775,1.624,1.295,1.416,0.886,2.038,1.502,81.0,614.0
2015-01-29,Ottawa,Canada,-75.6972,45.4215,[-76.1972 44.9215 -75.1972 45.9215],1.194,0.775,1.548,1.216,1.317,0.862,1.971,1.481,90.0,600.0
2015-01-30,Ottawa,Canada,-75.6972,45.4215,[-76.1972 44.9215 -75.1972 45.9215],1.125,0.724,1.493,1.097,1.312,0.851,2.004,1.471,74.0,611.0
2015-01-31,Ottawa,Canada,-75.6972,45.4215,[-76.1972 44.9215 -75.1972 45.9215],1.125,0.724,1.493,1.097,1.316,0.851,2.019,1.479,74.0,617.0
2015-02-01,Ottawa,Canada,-75.6972,45.4215,[-76.1972 44.9215 -75.1972 45.9215],1.125,0.724,1.493,1.097,1.452,0.886,2.085,1.532,74.0,613.0
2015-02-02,Ottawa,Canada,-75.6972,45.4215,[-76.1972 44.9215 -75.1972 45.9215],1.125,0.724,1.493,1.097,1.492,0.866,2.122,1.539,74.0,609.0
2015-02-03,Ottawa,Canada,-75.6972,45.4215,[-76.1972 44.9215 -75.1972 45.9215],0.982,0.724,1.493,1.073,1.405,0.797,1.899,1.465,57.0,608.0
2015-02-04,Ottawa,Canada,-75.6972,45.4215,[-76.1972 44.9215 -75.1972 45.9215],0.982,0.724,1.493,1.073,1.411,0.809,1.903,1.451,57.0,611.0
2015-02-05,Ottawa,Canada,-75.6972,45.4215,[-76.1972 44.9215 -75.1972 45.9215],1.362,0.739,1.504,1.209,1.487,0.827,1.891,1.496,46.0,611.0
2015-02-06,Ottawa,Canada,-75.6972,45.4215,[-76.1972 44.9215 -75.1972 45.9215],0.764,0.393,1.493,0.913,1.409,0.773,1.866,1.439,58.0,612.0
2015-02-07,Ottawa,Canada,-75.6972,45.4215,[-76.1972 44.9215 -75.1972 45.9215],0.855,0.421,1.504,1.285,1.319,0.661,1.865,1.392,68.0,601.0
2015-02-08,Ottawa,Canada,-75.6972,45.4215,[-76.1972 44.9215 -75.1972 45.9215],0.574,0.352,0.956,1.085,1.235,0.696,1.681,1.301,55.0,607.0
2015-02-09,Ottawa,Canada,-75.6972,45.4215,[-76.1972 44.9215 -75.1972 45.9215],0.577,0.2,0.946,0.879,1.037,0.501,1.472,1.145,84.0,608.0
2015-02-10,Ottawa,Canada,-75.6972,45.4215,[-76.1972 44.9215 -75.1972 45.9215],0.577,0.2,0.946,0.881,1.048,0.505,1.55,1.173,82.0,562.0
2015-02-11,Ottawa,Canada,-75.6972,45.4215,[-76.1972 44.9215 -75.1972 45.9215],0.794,0.352,1.612,1.483,1.177,0.609,1.777,1.385,99.0,565.0
2015-02-12,Ottawa,Canada,-75.6972,45.4215,[-76.1972 44.9215 -75.1972 45.9215],0.794,0.352,1.612,1.483,1.172,0.601,1.774,1.38,99.0,565.0
2015-02-13,Ottawa,Canada,-75.6972,45.4215,[-76.1972 44.9215 -75.1972 45.9215],0.946,0.39,1.829,1.534,1.11,0.638,1.789,1.374,104.0,564.0
2015-02-14,Ottawa,Canada,-75.6972,45.4215,[-76.1972 44.9215 -75.1972 45.9215],0.924,0.39,1.625,1.512,1.084,0.619,1.689,1.35,100.0,550.0
2015-02-15,Ottawa,Canada,-75.6972,45.4215,[-76.1972 44.9215 -75.1972 45.9215],0.946,0.39,1.625,1.51,1.094,0.62,1.688,1.346,103.0,556.0
2015-02-16,Ottawa,Canada,-75.6972,45.4215,[-76.1972 44.9215 -75.1972 45.9215],0.826,0.365,1.538,1.386,0.914,0.442,1.551,1.211,128.0,563.0
2015-02-17,Ottawa,Canada,-75.6972,45.4215,[-76.1972 44.9215 -75.1972 45.9215],0.826,0.365,1.538,1.386,0.914,0.443,1.559,1.21,128.0,561.0
2015-02-18,Ottawa,Canada,-75.6972,45.4215,[-76.1972 44.9215 -75.1972 45.9215],0.952,0.532,1.625,1.413,0.99,0.503,1.614,1.257,158.0,559.0
2015-02-19,Ottawa,Canada,-75.6972,45.4215,[-76.1972 44.9215 -75.1972 45.9215],0.952,0.532,1.625,1.413,0.926,0.498,1.557,1.233,158.0,556.0
2015-02-20,Ottawa,Canada,-75.6972,45.4215,[-76.1972 44.9215 -75.1972 45.9215],0.936,0.481,1.559,1.308,0.938,0.479,1.509,1.193,197.0,559.0
2015-02-21,Ottawa,Canada,-75.6972,45.4215,[-76.1972 44.9215 -75.1972 45.9215],0.976,0.574,1.625,1.406,0.961,0.538,1.584,1.25,185.0,562.0
2015-02-22,Ottawa,Canada,-75.6972,45.4215,[-76.1972 44.9215 -75.1972 45.9215],0.952,0.565,1.559,1.289,1.079,0.647,1.663,1.332,177.0,565.0
2015-02-23,Ottawa,Canada,-75.6972,45.4215,[-76.1972 44.9215 -75.1972 45.9215],0.976,0.53,1.606,1.316,1.105,0.629,1.697,1.372,188.0,555.0
2015-02-24,Ottawa,Canada,-75.6972,45.4215,[-76.1972 44.9215 -75.1972 45.9215],1.129,0.612,1.751,1.486,1.153,0.688,1.717,1.452,159.0,559.0
2015-02-25,Ottawa,Canada,-75.6972,45.4215,[-76.1972 44.9215 -75.1972 45.9215],0.929,0.538,1.565,1.311,0.945,0.6,1.547,1.261,192.0,599.0
2015-02-26,Ottawa,Canada,-75.6972,45.4215,[-76.1972 44.9215 -75.1972 45.9215],0.844,0.53,1.414,0.99,0.923,0.591,1.499,1.141,175.0,593.0
2015-02-27,Ottawa,Canada,-75.6972,45.4215,[-76.1972 44.9215 -75.1972 45.9215],0.882,0.564,1.414,1.041,0.967,0.63,1.502,1.161,212.0,597.0
2015-02-28,Ottawa,Canada,-75.6972,45.4215,[-76.1972 44.9215 -75.1972 45.9215],0.817,0.53,1.165,0.965,0.94,0.62,1.386,1.137,191.0,601.0
2015-03-01,Ottawa,Canada,-75.6972,45.4215,[-76.1972 44.9215 -75.1972 45.9215],0.759,0.481,1.129,0.884,0.911,0.608,1.38,1.1,212.0,604.0
2015-03-02,Ottawa,Canada,-75.6972,45.4215,[-76.1972 44.9215 -75.1972 45.9215],0.759,0.477,1.074,0.876,0.903,0.61,1.353,1.11,224.0,594.0
2015-03-03,Ottawa,Canada,-75.6972,45.4215,[-76.1972 44.9215 -75.1972 45.9215],0.784,0.484,1.131,0.908,0.919,0.615,1.387,1.125,200.0,603.0
2015-03-04,Ottawa,Canada,-75.6972,45.4215,[-76.1972 44.9215 -75.1972 45.9215],0.759,0.469,1.129,0.881,0.889,0.565,1.333,1.071,231.0,611.0
2015-03-05,Ottawa,Canada,-75.6972,45.4215,[-76.1972 44.9215 -75.1972 45.9215],0.65,0.41,0.97,0.747,0.856,0.541,1.29,1.041,201.0,608.0
2015-03-06,Ottawa,Canada,-75.6972,45.4215,[-76.1972 44.9215 -75.1972 45.9215],0.65,0.41,0.97,0.747,0.875,0.555,1.286,1.057,201.0,603.0
2015-03-07,Ottawa,Canada,-75.6972,45.4215,[-76.1972 44.9215 -75.1972 45.9215],0.611,0.41,0.879,0.729,0.868,0.554,1.294,1.077,162.0,602.0
2015-03-08,Ottawa,Canada,-75.6972,45.4215,[-76.1972 44.9215 -75.1972 45.9215],0.611,0.399,0.879,0.724,0.868,0.551,1.294,1.069,163.0,606.0
2015-03-09,Ottawa,Canada,-75.6972,45.4215,[-76.1972 44.9215 -75.1972 45.9215],0.611,0.388,0.879,0.728,0.819,0.518,1.169,0.954,160.0,607.0
2015-03-10,Ottawa,Canada,-75.6972,45.4215,[-76.1972 44.9215 -75.1972 45.9215],0.585,0.333,0.844,0.68,0.797,0.49,1.132,0.898,155.0,609.0
2015-03-11,Ottawa,Canada,-75.6972,45.4215,[-76.1972 44.9215 -75.1972 45.9215],0.585,0.333,0.844,0.68,0.816,0.503,1.208,0.942,155.0,601.0
2015-03-12,Ottawa,Canada,-75.6972,45.4215,[-76.1972 44.9215 -75.1972 45.9215],0.611,0.319,0.97,0.72,0.902,0.567,1.315,1.041,133.0,607.0
2015-03-13,Ottawa,Canada,-75.6972,45.4215,[-76.1972 44.9215 -75.1972 45.9215],0.657,0.333,1.074,0.759,0.889,0.544,1.304,1.034,149.0,607.0
2015-03-14,Ottawa,Canada,-75.6972,45.4215,[-76.1972 44.9215 -75.1972 45.9215],0.468,0.263,0.836,0.578,0.829,0.516,1.253,0.997,112.0,563.0
2015-03-15,Ottawa,Canada,-75.6972,45.4215,[-76.1972 44.9215 -75.1972 45.9215],0.598,0.333,0.881,0.63,0.801,0.439,1.356,0.967,145.0,567.0
2015-03-16,Ottawa,Canada,-75.6972,45.4215,[-76.1972 44.9215 -75.1972 45.9215],0.699,0.46,0.916,0.7,0.823,0.446,1.365,0.972,124.0,567.0
2015-03-17,Ottawa,Canada,-75.6972,45.4215,[-76.1972 44.9215 -75.1972 45.9215],0.745,0.463,1.098,0.799,0.827,0.435,1.354,0.968,133.0,568.0
2015-03-18,Ottawa,Canada,-75.6972,45.4215,[-76.1972 44.9215 -75.1972 45.9215],0.73,0.463,1.098,0.791,0.845,0.459,1.335,0.959,139.0,554.0
2015-03-19,Ottawa,Canada,-75.6972,45.4215,[-76.1972 44.9215 -75.1972 45.9215],0.781,0.463,1.197,0.822,0.83,0.42,1.393,0.963,108.0,560.0
2015-03-20,Ottawa,Canada,-75.6972,45.4215,[-76.1972 44.9215 -75.1972 45.9215],0.781,0.463,1.197,0.822,0.911,0.479,1.396,1.009,108.0,567.0
2015-03-21,Ottawa,Canada,-75.6972,45.4215,[-76.1972 44.9215 -75.1972 45.9215],0.781,0.463,1.197,0.822,0.91,0.476,1.463,1.027,108.0,565.0
2015-03-22,Ottawa,Canada,-75.6972,45.4215,[-76.1972 44.9215 -75.1972 45.9215],0.719,0.387,0.981,0.756,0.859,0.47,1.339,0.986,131.0,566.0
2015-03-23,Ottawa,Canada,-75.6972,45.4215,[-76.1972 44.9215 -75.1972 45.9215],0.719,0.4,1.005,0.761,0.891,0.489,1.387,1.037,130.0,565.0
2015-03-24,Ottawa,Canada,-75.6972,45.4215,[-76.1972 44.9215 -75.1972 45.9215],0.719,0.387,1.11,0.807,0.89,0.491,1.411,1.044,161.0,568.0
2015-03-25,Ottawa,Canada,-75.6972,45.4215,[-76.1972 44.9215 -75.1972 45.9215],0.803,0.466,1.209,0.88,0.93,0.539,1.464,1.084,145.0,570.0
2015-03-26,Ottawa,Canada,-75.6972,45.4215,[-76.1972 44.9215 -75.1972 45.9215],0.911,0.482,1.35,1.039,0.969,0.548,1.47,1.11,157.0,577.0
2015-03-27,Ottawa,Canada,-75.6972,45.4215,[-76.1972 44.9215 -75.1972 45.9215],0.941,0.482,1.662,1.085,1.038,0.542,1.825,1.225,171.0,565.0
2015-03-28,Ottawa,Canada,-75.6972,45.4215,[-76.1972 44.9215 -75.1972 45.9215],0.881,0.475,1.503,1.032,1.009,0.535,1.737,1.195,162.0,571.0
2015-03-29,Ottawa,Canada,-75.6972,45.4215,[-76.1972 44.9215 -75.1972 45.9215],0.953,0.485,1.712,1.1,1.09,0.62,1.851,1.245,189.0,614.0
2015-03-30,Ottawa,Canada,-75.6972,45.4215,[-76.1972 44.9215 -75.1972 45.9215],1.016,0.467,1.858,1.164,1.113,0.6,1.841,1.257,156.0,608.0
2015-03-31,Ottawa,Canada,-75.6972,45.4215,[-76.1972 44.9215 -75.1972 45.9215],1.192,0.529,1.895,1.257,1.185,0.63,1.864,1.311,193.0,612.0
2015-04-01,Ottawa,Canada,-75.6972,45.4215,[-76.1972 44.9215 -75.1972 45.9215],1.191,0.492,1.989,1.273,1.182,0.629,1.902,1.314,169.0,616.0
2015-04-02,Ottawa,Canada,-75.6972,45.4215,[-76.1972 44.9215 -75.1972 45.9215],1.192,0.529,2.037,1.286,1.223,0.565,1.975,1.325,162.0,616.0
2015-04-03,Ottawa,Canada,-75.6972,45.4215,[-76.1972 44.9215 -75.1972 45.9215],1.192,0.529,2.037,1.282,1.416,0.799,2.237,1.536,165.0,603.0
2015-04-04,Ottawa,Canada,-75.6972,45.4215,[-76.1972 44.9215 -75.1972 45.9215],1.171,0.556,1.895,1.262,1.377,0.756,2.195,1.538,179.0,611.0
2015-04-05,Ottawa,Canada,-75.6972,45.4215,[-76.1972 44.9215 -75.1972 45.9215],1.171,0.589,1.895,1.258,1.355,0.758,2.17,1.497,213.0,619.0
2015-04-06,Ottawa,Canada,-75.6972,45.4215,[-76.1972 44.9215 -75.1972 45.9215],1.343,0.695,2.037,1.362,1.457,0.828,2.326,1.582,190.0,612.0
2015-04-07,Ottawa,Canada,-75.6972,45.4215,[-76.1972 44.9215 -75.1972 45.9215],1.329,0.697,1.999,1.357,1.413,0.782,2.281,1.537,218.0,612.0
2015-04-08,Ottawa,Canada,-75.6972,45.4215,[-76.1972 44.9215 -75.1972 45.9215],1.408,0.817,2.037,1.407,1.483,0.899,2.338,1.606,187.0,610.0
2015-04-09,Ottawa,Canada,-75.6972,45.4215,[-76.1972 44.9215 -75.1972 45.9215],1.343,0.736,1.999,1.361,1.452,0.814,2.272,1.562,224.0,614.0
2015-04-10,Ottawa,Canada,-75.6972,45.4215,[-76.1972 44.9215 -75.1972 45.9215],1.191,0.683,1.841,1.281,1.448,0.852,2.265,1.576,212.0,624.0
2015-04-11,Ottawa,Canada,-75.6972,45.4215,[-76.1972 44.9215 -75.1972 45.9215],1.294,0.714,1.816,1.296,1.432,0.798,2.128,1.522,193.0,629.0
2015-04-12,Ottawa,Canada,-75.6972,45.4215,[-76.1972 44.9215 -75.1972 45.9215],1.373,0.804,1.841,1.322,1.459,0.837,2.104,1.531,210.0,618.0
2015-04-13,Ottawa,Canada,-75.6972,45.4215,[-76.1972 44.9215 -75.1972 45.9215],1.294,0.802,1.723,1.301,1.479,0.791,2.204,1.556,183.0,620.0
2015-04-14,Ottawa,Canada,-75.6972,45.4215,[-76.1972 44.9215 -75.1972 45.9215],1.294,0.802,1.725,1.335,1.557,0.897,2.29,1.622,185.0,620.0
2015-04-15,Ottawa,Canada,-75.6972,45.4215,[-76.1972 44.9215 -75.1972 45.9215],1.171,0.65,1.717,1.246,1.658,0.855,2.368,1.663,148.0,576.0
2015-04-16,Ottawa,Canada,-75.6972,45.4215,[-76.1972 44.9215 -75.1972 45.9215],1.171,0.65,1.717,1.246,1.665,0.953,2.423,1.7,148.0,576.0
2015-04-17,Ottawa,Canada,-75.6972,45.4215,[-76.1972 44.9215 -75.1972 45.9215],1.171,0.65,1.717,1.246,1.65,1.0,2.405,1.728,148.0,580.0
2015-04-18,Ottawa,Canada,-75.6972,45.4215,[-76.1972 44.9215 -75.1972 45.9215],1.294,0.655,1.723,1.29,1.639,0.878,2.37,1.683,158.0,583.0
2015-04-19,Ottawa,Canada,-75.6972,45.4215,[-76.1972 44.9215 -75.1972 45.9215],1.374,0.532,1.816,1.302,1.621,0.806,2.382,1.668,164.0,571.0
2015-04-20,Ottawa,Canada,-75.6972,45.4215,[-76.1972 44.9215 -75.1972 45.9215],1.373,0.524,1.816,1.316,1.646,0.816,2.417,1.7,130.0,579.0
2015-04-21,Ottawa,Canada,-75.6972,45.4215,[-76.1972 44.9215 -75.1972 45.9215],1.304,0.519,1.816,1.255,1.748,0.85,2.548,1.796,161.0,584.0
2015-04-22,Ottawa,Canada,-75.6972,45.4215,[-76.1972 44.9215 -75.1972 45.9215],1.324,0.483,1.816,1.227,1.812,0.929,2.637,1.848,133.0,577.0
2015-04-23,Ottawa,Canada,-75.6972,45.4215,[-76.1972 44.9215 -75.1972 45.9215],1.421,0.53,2.168,1.432,1.763,0.816,2.599,1.757,151.0,573.0
2015-04-24,Ottawa,Canada,-75.6972,45.4215,[-76.1972 44.9215 -75.1972 45.9215],1.668,0.744,2.455,1.569,1.817,0.842,2.733,1.81,114.0,570.0
2015-04-25,Ottawa,Canada,-75.6972,45.4215,[-76.1972 44.9215 -75.1972 45.9215],1.421,0.646,2.168,1.434,1.751,0.788,2.509,1.735,151.0,572.0
2015-04-26,Ottawa,Canada,-75.6972,45.4215,[-76.1972 44.9215 -75.1972 45.9215],1.362,0.532,2.281,1.422,1.718,0.786,2.52,1.737,145.0,606.0
2015-04-27,Ottawa,Canada,-75.6972,45.4215,[-76.1972 44.9215 -75.1972 45.9215],1.675,0.685,2.886,1.739,1.692,0.785,2.622,1.73,129.0,610.0
2015-04-28,Ottawa,Canada,-75.6972,45.4215,[-76.1972 44.9215 -75.1972 45.9215],1.535,0.641,2.757,1.635,1.558,0.533,2.602,1.598,154.0,601.0
2015-04-29,Ottawa,Canada,-75.6972,45.4215,[-76.1972 44.9215 -75.1972 45.9215],1.075,0.018,2.364,0.864,1.478,0.367,2.63,1.443,163.0,608.0
2015-04-30,Ottawa,Canada,-75.6972,45.4215,[-76.1972 44.9215 -75.1972 45.9215],1.074,0.268,2.123,0.917,1.362,0.414,2.566,1.421,197.0,646.0
2015-05-01,Ottawa,Canada,-75.6972,45.4215,[-76.1972 44.9215 -75.1972 45.9215],1.074,0.268,2.123,0.917,1.44,0.341,2.723,1.469,197.0,642.0
2015-05-02,Ottawa,Canada,-75.6972,45.4215,[-76.1972 44.9215 -75.1972 45.9215],1.074,0.268,2.123,0.916,1.416,0.347,2.742,1.457,200.0,645.0
2015-05-03,Ottawa,Canada,-75.6972,45.4215,[-76.1972 44.9215 -75.1972 45.9215],1.047,0.248,1.912,0.854,1.511,0.243,2.619,1.433,187.0,647.0
2015-05-04,Ottawa,Canada,-75.6972,45.4215,[-76.1972 44.9215 -75.1972 45.9215],1.073,0.248,1.912,0.844,1.525,0.287,2.607,1.427,167.0,649.0
2015-05-05,Ottawa,Canada,-75.6972,45.4215,[-76.1972 44.9215 -75.1972 45.9215],1.074,0.248,1.927,0.889,1.548,0.474,2.551,1.46,180.0,637.0
2015-05-06,Ottawa,Canada,-75.6972,45.4215,[-76.1972 44.9215 -75.1972 45.9215],1.272,0.55,2.036,1.016,1.486,0.443,2.378,1.314,189.0,649.0
2015-05-07,Ottawa,Canada,-75.6972,45.4215,[-76.1972 44.9215 -75.1972 45.9215],1.193,0.521,1.974,1.019,1.452,0.426,2.332,1.297,224.0,654.0
2015-05-08,Ottawa,Canada,-75.6972,45.4215,[-76.1972 44.9215 -75.1972 45.9215],1.074,0.421,1.766,0.858,1.5,0.559,2.303,1.337,206.0,652.0
2015-05-09,Ottawa,Canada,-75.6972,45.4215,[-76.1972 44.9215 -75.1972 45.9215],1.074,0.421,1.766,0.858,1.517,0.65,2.296,1.373,206.0,650.0
2015-05-10,Ottawa,Canada,-75.6972,45.4215,[-76.1972 44.9215 -75.1972 45.9215],1.047,0.296,1.841,0.797,1.513,0.595,2.363,1.395,169.0,637.0
2015-05-11,Ottawa,Canada,-75.6972,45.4215,[-76.1972 44.9215 -75.1972 45.9215],1.067,0.314,1.84,0.818,1.503,0.574,2.369,1.387,177.0,606.0
2015-05-12,Ottawa,Canada,-75.6972,45.4215,[-76.1972 44.9215 -75.1972 45.9215],0.866,0.203,1.655,0.55,1.548,0.622,2.38,1.42,185.0,622.0
2015-05-13,Ottawa,Canada,-75.6972,45.4215,[-76.1972 44.9215 -75.1972 45.9215],0.961,0.335,1.655,0.64,1.575,0.725,2.359,1.461,194.0,623.0
2015-05-14,Ottawa,Canada,-75.6972,45.4215,[-76.1972 44.9215 -75.1972 45.9215],1.074,0.583,1.665,1.107,1.503,0.749,2.22,1.512,209.0,612.0
2015-05-15,Ottawa,Canada,-75.6972,45.4215,[-76.1972 44.9215 -75.1972 45.9215],1.158,0.507,1.838,1.133,1.474,0.672,2.23,1.431,188.0,618.0
2015-05-16,Ottawa,Canada,-75.6972,45.4215,[-76.1972 44.9215 -75.1972 45.9215],1.189,0.516,1.841,1.142,1.467,0.641,2.169,1.405,207.0,619.0
2015-05-17,Ottawa,Canada,-75.6972,45.4215,[-76.1972 44.9215 -75.1972 45.9215],1.189,0.553,1.841,1.144,1.486,0.673,2.192,1.409,204.0,575.0
2015-05-18,Ottawa,Canada,-75.6972,45.4215,[-76.1972 44.9215 -75.1972 45.9215],1.189,0.553,1.841,1.144,1.488,0.723,2.157,1.419,204.0,581.0
2015-05-19,Ottawa,Canada,-75.6972,45.4215,[-76.1972 44.9215 -75.1972 45.9215],1.189,0.553,1.841,1.144,1.491,0.782,2.206,1.475,204.0,582.0
2015-05-20,Ottawa,Canada,-75.6972,45.4215,[-76.1972 44.9215 -75.1972 45.9215],1.189,0.553,1.841,1.154,1.496,0.733,2.279,1.501,194.0,584.0
2015-05-21,Ottawa,Canada,-75.6972,45.4215,[-76.1972 44.9215 -75.1972 45.9215],1.016,0.35,1.837,1.053,1.421,0.692,2.292,1.488,175.0,570.0
2015-05-22,Ottawa,Canada,-75.6972,45.4215,[-76.1972 44.9215 -75.1972 45.9215],1.275,0.553,1.925,1.212,1.577,0.83,2.337,1.569,164.0,579.0
2015-05-23,Ottawa,Canada,-75.6972,45.4215,[-76.1972 44.9215 -75.1972 45.9215],1.334,0.583,1.973,1.261,1.558,0.764,2.278,1.536,169.0,586.0
2015-05-24,Ottawa,Canada,-75.6972,45.4215,[-76.1972 44.9215 -75.1972 45.9215],1.334,0.583,1.973,1.261,1.551,0.786,2.277,1.538,169.0,584.0
2015-05-25,Ottawa,Canada,-75.6972,45.4215,[-76.1972 44.9215 -75.1972 45.9215],1.275,0.516,1.973,1.222,1.574,0.821,2.278,1.549,183.0,580.0
2015-05-26,Ottawa,Canada,-75.6972,45.4215,[-76.1972 44.9215 -75.1972 45.9215],1.275,0.516,1.973,1.217,1.575,0.825,2.247,1.532,175.0,580.0
2015-05-27,Ottawa,Canada,-75.6972,45.4215,[-76.1972 44.9215 -75.1972 45.9215],1.515,0.805,2.045,1.402,1.604,0.853,2.222,1.53,198.0,579.0
2015-05-28,Ottawa,Canada,-75.6972,45.4215,[-76.1972 44.9215 -75.1972 45.9215],1.736,0.822,2.233,1.549,1.665,0.892,2.289,1.588,183.0,613.0
2015-05-29,Ottawa,Canada,-75.6972,45.4215,[-76.1972 44.9215 -75.1972 45.9215],1.843,1.104,2.255,1.705,1.771,0.98,2.368,1.686,157.0,616.0
2015-05-30,Ottawa,Canada,-75.6972,45.4215,[-76.1972 44.9215 -75.1972 45.9215],1.736,0.789,2.218,1.555,1.752,1.011,2.365,1.712,169.0,606.0
2015-05-31,Ottawa,Canada,-75.6972,45.4215,[-76.1972 44.9215 -75.1972 45.9215],1.737,0.822,2.215,1.574,1.734,0.931,2.335,1.681,156.0,611.0
2015-06-01,Ottawa,Canada,-75.6972,45.4215,[-76.1972 44.9215 -75.1972 45.9215],1.737,0.822,2.215,1.574,1.697,0.955,2.426,1.713,156.0,650.0
2015-06-02,Ottawa,Canada,-75.6972,45.4215,[-76.1972 44.9215 -75.1972 45.9215],1.737,0.822,2.215,1.574,1.69,0.974,2.476,1.717,156.0,642.0
2015-06-03,Ottawa,Canada,-75.6972,45.4215,[-76.1972 44.9215 -75.1972 45.9215],1.737,0.822,2.215,1.574,1.632,0.958,2.376,1.649,156.0,645.0
2015-06-04,Ottawa,Canada,-75.6972,45.4215,[-76.1972 44.9215 -75.1972 45.9215],1.72,0.789,2.176,1.514,1.599,0.866,2.336,1.589,153.0,648.0
2015-06-05,Ottawa,Canada,-75.6972,45.4215,[-76.1972 44.9215 -75.1972 45.9215],1.737,0.822,2.182,1.542,1.642,0.893,2.319,1.616,132.0,649.0
2015-06-06,Ottawa,Canada,-75.6972,45.4215,[-76.1972 44.9215 -75.1972 45.9215],1.387,0.318,2.135,1.22,1.585,0.815,2.301,1.589,137.0,639.0
2015-06-07,Ottawa,Canada,-75.6972,45.4215,[-76.1972 44.9215 -75.1972 45.9215],1.369,0.264,2.135,1.191,1.63,0.823,2.371,1.615,139.0,648.0
2015-06-08,Ottawa,Canada,-75.6972,45.4215,[-76.1972 44.9215 -75.1972 45.9215],1.338,0.219,2.135,1.184,1.593,0.812,2.358,1.616,151.0,654.0
2015-06-09,Ottawa,Canada,-75.6972,45.4215,[-76.1972 44.9215 -75.1972 45.9215],1.338,0.264,2.176,1.234,1.503,0.688,2.233,1.507,137.0,652.0
2015-06-10,Ottawa,Canada,-75.6972,45.4215,[-76.1972 44.9215 -75.1972 45.9215],1.72,0.595,2.779,1.571,1.577,0.67,2.378,1.546,159.0,647.0
2015-06-11,Ottawa,Canada,-75.6972,45.4215,[-76.1972 44.9215 -75.1972 45.9215],1.632,0.219,2.928,1.459,1.471,0.586,2.323,1.482,120.0,634.0
2015-06-12,Ottawa,Canada,-75.6972,45.4215,[-76.1972 44.9215 -75.1972 45.9215],1.27,0.288,2.277,1.294,1.425,0.577,2.249,1.458,138.0,605.0
2015-06-13,Ottawa,Canada,-75.6972,45.4215,[-76.1972 44.9215 -75.1972 45.9215],1.352,0.345,2.757,1.414,1.491,0.649,2.361,1.529,158.0,619.0
2015-06-14,Ottawa,Canada,-75.6972,45.4215,[-76.1972 44.9215 -75.1972 45.9215],1.543,0.631,2.77,1.56,1.542,0.726,2.377,1.571,134.0,623.0
2015-06-15,Ottawa,Canada,-75.6972,45.4215,[-76.1972 44.9215 -75.1972 45.9215],1.543,0.732,2.757,1.533,1.508,0.685,2.35,1.524,155.0,613.0
2015-06-16,Ottawa,Canada,-75.6972,45.4215,[-76.1972 44.9215 -75.1972 45.9215],1.459,0.666,2.757,1.504,1.475,0.685,2.333,1.503,170.0,620.0
2015-06-17,Ottawa,Canada,-75.6972,45.4215,[-76.1972 44.9215 -75.1972 45.9215],1.421,0.511,2.444,1.415,1.438,0.595,2.249,1.45,187.0,620.0
2015-06-18,Ottawa,Canada,-75.6972,45.4215,[-76.1972 44.9215 -75.1972 45.9215],1.421,0.511,2.444,1.415,1.385,0.624,2.25,1.443,187.0,576.0
2015-06-19,Ottawa,Canada,-75.6972,45.4215,[-76.1972 44.9215 -75.1972 45.9215],1.391,0.595,2.101,1.357,1.378,0.637,2.189,1.428,223.0,579.0
2015-06-20,Ottawa,Canada,-75.6972,45.4215,[-76.1972 44.9215 -75.1972 45.9215],1.391,0.595,2.101,1.357,1.414,0.654,2.19,1.454,223.0,583.0
2015-06-21,Ottawa,Canada,-75.6972,45.4215,[-76.1972 44.9215 -75.1972 45.9215],1.425,0.802,2.147,1.462,1.396,0.684,2.163,1.439,194.0,583.0